Cuero, Texas, United States (77954)
Lat: 29.09N, Lon: 97.29W
Wx Zone: TXZ224
Local Info
Past Weather Observations for Today

NOTE: This archive is for the closest National Weather Service station to Cuero. Information may differ from the station used for current weather conditions.

Click here for Long-term Archive

Time Weather Temperature Dewpoint Humidity Pressure Winds Precip Visibility
22:51
Clear
73°F / 23°C 73°F / 23°C 100% 30.01 in
(1016 mb)
E 6.9 mph
(E 11 kph)
- 10SM
21:51
Clear
73°F / 23°C 73°F / 23°C 100% 30.01 in
(1016 mb)
NE 6.9 mph
(NE 11 kph)
- 10SM
20:51
Overcast
75°F / 24°C 73°F / 23°C 94% 30.01 in
(1016 mb)
NE 10.4 mph
(NE 17 kph)
- 10SM
20:44
Overcast
75°F / 24°C 73°F / 23°C 94% 30.01 in
(1016 mb)
NE 11.5 mph
(NE 19 kph)
- 10SM
20:33
Overcast
75°F / 24°C 73°F / 23°C 94% 30.01 in
(1016 mb)
NNE 12.7 mph
(NNE 20 kph)
- 10SM
19:51
Clear
75°F / 24°C 73°F / 23°C 94% 29.98 in
(1015 mb)
N 8.1 mph
(N 13 kph)
- 10SM
18:51
Clear
77°F / 25°C 73°F / 23°C 89% 29.95 in
(1014 mb)
E 6.9 mph
(E 11 kph)
- 10SM
17:51
Clear
81°F / 27°C 73°F / 23°C 79% 29.95 in
(1014 mb)
E 5.8 mph
(E 9 kph)
- 10SM
16:51
Partly Cloudy
82°F / 28°C 72°F / 22°C 70% 29.92 in
(1013 mb)
ESE 6.9 mph
(ESE 11 kph)
- 10SM
16:20
Partly Cloudy
82°F / 28°C 73°F / 23°C 74% 29.92 in
(1013 mb)
SE 10.4 mph
(SE 17 kph)
- 10SM
15:51
Partly Cloudy
Thunder Storms
82°F / 28°C 75°F / 24°C 79% 29.92 in
(1013 mb)
E 15 mph
(E 24 kph)
- 10SM
15:27
Mostly Cloudy
84°F / 29°C 75°F / 24°C 74% 29.92 in
(1013 mb)
SE 15 mph
(SE 24 kph)
- 10SM
15:12
Clear
Thunder Storms
84°F / 29°C 73°F / 23°C 70% 29.92 in
(1013 mb)
SSE 10.4 mph
(SSE 17 kph)
- 10SM
14:51
Partly Cloudy
84°F / 29°C 75°F / 24°C 74% 29.92 in
(1013 mb)
SSE 6.9 mph
(SSE 11 kph)
0.01 in
(0.25 mm)
10SM
14:08
Mostly Cloudy
81°F / 27°C 73°F / 23°C 79% 29.92 in
(1013 mb)
ESE 8.1 mph
(ESE 13 kph)
0.00 in
(0.00 mm)
10SM
13:51
Partly Cloudy
Thunder Storms
84°F / 29°C 73°F / 23°C 70% 29.95 in
(1014 mb)
SSE 23 mph
(SSE 37 kph)
- 10SM
13:47
Partly Cloudy
Thunder Storms
88°F / 31°C 73°F / 23°C 62% 29.95 in
(1014 mb)
SSE 13.8 mph
(SSE 22 kph)
- 10SM
12:51
Clear
88°F / 31°C 72°F / 22°C 59% 29.95 in
(1014 mb)
S 15 mph
(S 24 kph)
- 10SM
11:51
Clear
86°F / 30°C 73°F / 23°C 66% 29.98 in
(1015 mb)
SSE 11.5 mph
(SSE 19 kph)
- 10SM
10:51
Clear
84°F / 29°C 75°F / 24°C 74% 29.98 in
(1015 mb)
SE 12.7 mph
(SE 20 kph)
- 10SM
09:51
Clear
81°F / 27°C 75°F / 24°C 84% 29.98 in
(1015 mb)
SE 9.2 mph
(SE 15 kph)
- 10SM
08:51
Partly Cloudy
79°F / 26°C 73°F / 23°C 84% 29.98 in
(1015 mb)
SSE 4.6 mph
(SSE 7 kph)
- 10SM
07:51
Mostly Cloudy
75°F / 24°C 73°F / 23°C 94% 29.98 in
(1015 mb)
E 3.5 mph
(E 6 kph)
- 10SM
06:51
Partly Cloudy
75°F / 24°C 73°F / 23°C 94% 29.98 in
(1015 mb)
SSE 5.8 mph
(SSE 9 kph)
- 10SM
06:26
Clear
73°F / 23°C 73°F / 23°C 100% 29.95 in
(1014 mb)
SE 5.8 mph
(SE 9 kph)
- 10SM
06:02
Clear
Thunder Storms
73°F / 23°C 72°F / 22°C 94% 29.95 in
(1014 mb)
SE 6.9 mph
(SE 11 kph)
- 10SM
05:51
Clear
75°F / 24°C 73°F / 23°C 94% 29.95 in
(1014 mb)
S 9.2 mph
(S 15 kph)
- 10SM
04:51
Clear
73°F / 23°C 73°F / 23°C 100% 29.95 in
(1014 mb)
ESE 4.6 mph
(ESE 7 kph)
- 10SM
03:51
Partly Cloudy
75°F / 24°C 73°F / 23°C 94% 29.95 in
(1014 mb)
E 5.8 mph
(E 9 kph)
- 10SM
02:51
Clear
75°F / 24°C 75°F / 24°C 100% 29.95 in
(1014 mb)
ESE 5.8 mph
(ESE 9 kph)
- 9SM
01:51
Clear
75°F / 24°C 75°F / 24°C 100% 29.95 in
(1014 mb)
E 5.8 mph
(E 9 kph)
- 7SM
00:51
Clear
75°F / 24°C 75°F / 24°C 100% 29.95 in
(1014 mb)
E 4.6 mph
(E 7 kph)
- 7SM
Time Weather Temperature Dewpoint Humidity Pressure Winds Precip Visibility


Weather for websites

WeatherForYou.com, LLC is not responsible for any damages or problems caused by this service. Current weather conditions are obtained from the closest station including government and personal stations which may have varying degrees of accuracy. Weather forecasts are derived from the NOAA NDFD. Like all things, this site belongs to Jesus Christ... He just trusts us to maintain it. If you have any questions or comments email webmaster@weatherforyou.com

Copyright © 2016, WeatherForYou.com LLC. All rights reserved.